World > North America > United States > Illinois   City of Peoria, IL

Peoria, Illinois Regional Weather

Lat: 40.74N, Lon: 89.61W
Wx Zone: ILZ029Web Search
Peoria Weather Warning NWS WEATHER ALERT FOR THE PEORIA, IL AREA - Issued: 319 PM CDT Thu Oct 22 2020 Peoria Weather Warning  

Helpful Tip: Type the letters wx in the search engine next time you need to find us.

Feedback
Peoria Weather Map
UTC Time: 10/23/2020, 08:34
Your Time:

Peoria, IL Regional Weather

Expires:202010230900;;699916
ASUS43 KLOT 230809
RWRIL 

ILLINOIS REGIONAL WEATHER ROUNDUP
NATIONAL WEATHER SERVICE CHICAGO/ROMEOVILLE IL
300 AM CDT FRI OCT 23 2020

NOTE: "FAIR" INDICATES FEW OR NO CLOUDS BELOW 12,000 FEET WITH NO
SIGNIFICANT WEATHER AND/OR OBSTRUCTIONS TO VISIBILITY.

* THESE STATIONS ARE NOT UNDER NWS QUALITY CONTROL. THEY ALSO MAY NOT
  REPORT WEATHER SUCH AS PRECIPITATION OR FOG.


ILZ028>032-037-038-041>044-048-051>054-059>061-230900-
CENTRAL ILLINOIS
  
CITY           SKY/WX    TMP DP  RH WIND       PRES   REMARKS
PONTIAC        CLEAR     68  63  84 S15       29.87F                  
BLOOMINGTON    CLEAR     66  64  93 S16       29.90F                  
DECATUR        PTCLDY    66  63  90 S9        29.93R                  
PEORIA         CLOUDY    69  61  75 S16       29.85S                  
LACON*         CLOUDY    70  62  76 SW14G21   29.83R                  
LINCOLN*       CLEAR     69  62  80 S8        29.89F                  
SPRINGFIELD    CLEAR     68  63  84 S15       29.89F                  
TAYLORVILLE    CLEAR     65  63  90 S10       29.92F                  
$$


SKY/WX - Weather  TMP - Temperature  DP - Dew Point  RH - Relative Humidity
WIND - Wind Direction/Speed PRES - Barometric Pressure VSB - Visibility
WCI - Wind Chill Index E13G22 Wind - East Wind 13 mph/Gusts of 22 mph